When you browse on this site, cookies collect data to enhance your experience and personalize the content and advertising you see.
Visit our Privacy Policy to learn more. By continuing to use the site, you agree to this use of cookies and data.
  • In Österreich
  • Länderverzeichnis
  • Für 7 Tage
  • Wassertemperatur
  • Wetterkarte
  • News
  • Widgets
  • user-avatar
    Anmelden

    Stündliche Wetter Tulancingo

    Heute, 23 August, Freitag

    Zeit Temperatur Niederschläge Wind Luftdruck Luftfeuchtigkeit
    00:00 +16°C° 1.3 mm 1 m/S 587 mmHg 95%
    01:00 +16°C° 1.3 mm 1 m/S 587 mmHg 93%
    02:00 +15°C° 1.3 mm 1 m/S 586 mmHg 92%
    03:00 +15°C° 0.4 mm 2 m/S 586 mmHg 92%
    04:00 +15°C° 0.4 mm 2 m/S 586 mmHg 93%
    05:00 +15°C° 0 mm 1 m/S 587 mmHg 90%
    06:00 +16°C° 0 mm 1 m/S 587 mmHg 85%
    07:00 +19°C° 0 mm 1 m/S 588 mmHg 80%
    08:00 +19°C° 0 mm 2 m/S 589 mmHg 75%
    09:00 +20°C° 0.6 mm 2 m/S 589 mmHg 72%
    10:00 +21°C° 0.6 mm 2 m/S 589 mmHg 69%
    11:00 +23°C° 0.6 mm 2 m/S 589 mmHg 66%
    12:00 +21°C° 2.2 mm 2 m/S 588 mmHg 73%
    13:00 +20°C° 2.2 mm 2 m/S 588 mmHg 79%
    14:00 +19°C° 2.2 mm 2 m/S 587 mmHg 86%
    15:00 +18°C° 2 mm 2 m/S 586 mmHg 88%
    16:00 +17°C° 2 mm 2 m/S 586 mmHg 90%
    17:00 +16°C° 2 mm 2 m/S 585 mmHg 92%
    18:00 +16°C° 0.4 mm 2 m/S 586 mmHg 91%
    19:00 +16°C° 0.4 mm 2 m/S 586 mmHg 90%
    20:00 +15°C° 0.4 mm 2 m/S 587 mmHg 89%
    21:00 +15°C° 0 mm 2 m/S 587 mmHg 90%
    22:00 +15°C° 0 mm 2 m/S 587 mmHg 90%
    23:00 +15°C° 0 mm 2 m/S 587 mmHg 90%

    Morgen, 24 August, Samstag

    Zeit Temperatur Niederschläge Wind Luftdruck Luftfeuchtigkeit
    00:00 +15°C° 0 mm 1 m/S 586 mmHg 90%
    01:00 +15°C° 0 mm 1 m/S 586 mmHg 89%
    02:00 +14°C° 0 mm 1 m/S 586 mmHg 88%
    03:00 +14°C° 0 mm 1 m/S 586 mmHg 88%
    04:00 +14°C° 0 mm 1 m/S 586 mmHg 87%
    05:00 +14°C° 0 mm 1 m/S 586 mmHg 86%
    06:00 +16°C° 0 mm 1 m/S 587 mmHg 80%
    07:00 +19°C° 0 mm 1 m/S 588 mmHg 73%
    08:00 +21°C° 0 mm 1 m/S 590 mmHg 67%
    09:00 +22°C° 0.3 mm 1 m/S 590 mmHg 65%
    10:00 +23°C° 0.3 mm 1 m/S 590 mmHg 63%
    11:00 +24°C° 0.3 mm 2 m/S 590 mmHg 62%
    12:00 +24°C° 1.6 mm 2 m/S 589 mmHg 65%
    13:00 +23°C° 1.6 mm 2 m/S 589 mmHg 69%
    14:00 +23°C° 1.6 mm 2 m/S 588 mmHg 72%
    15:00 +21°C° 1.4 mm 2 m/S 588 mmHg 77%
    16:00 +20°C° 1.4 mm 2 m/S 587 mmHg 81%
    17:00 +20°C° 1.4 mm 2 m/S 587 mmHg 86%
    18:00 +20°C° 0.8 mm 1 m/S 587 mmHg 88%
    19:00 +18°C° 0.8 mm 1 m/S 587 mmHg 90%
    20:00 +16°C° 0.8 mm 1 m/S 587 mmHg 91%
    21:00 +16°C° 0 mm 1 m/S 587 mmHg 90%
    22:00 +16°C° 0 mm 1 m/S 587 mmHg 88%
    23:00 +16°C° 0 mm 1 m/S 587 mmHg 87%

    übermorgen, 25 August, Sonntag

    Zeit Temperatur Niederschläge Wind Luftdruck Luftfeuchtigkeit
    00:00 +15°C° 0 mm 1 m/S 586 mmHg 87%
    01:00 +15°C° 0 mm 1 m/S 586 mmHg 87%
    02:00 +14°C° 0 mm 1 m/S 585 mmHg 87%
    03:00 +14°C° 0 mm 1 m/S 585 mmHg 87%
    04:00 +14°C° 0 mm 1 m/S 585 mmHg 87%
    05:00 +14°C° 0 mm 1 m/S 585 mmHg 87%
    06:00 +16°C° 0 mm 1 m/S 587 mmHg 80%
    07:00 +19°C° 0 mm 1 m/S 588 mmHg 74%
    08:00 +22°C° 0 mm 1 m/S 589 mmHg 67%
    09:00 +23°C° 0 mm 1 m/S 590 mmHg 62%
    10:00 +25°C° 0 mm 1 m/S 590 mmHg 58%
    11:00 +26°C° 0 mm 1 m/S 590 mmHg 53%
    12:00 +25°C° 1.8 mm 2 m/S 589 mmHg 61%
    13:00 +24°C° 1.8 mm 2 m/S 588 mmHg 69%
    14:00 +23°C° 1.8 mm 2 m/S 587 mmHg 76%
    15:00 +21°C° 2 mm 2 m/S 587 mmHg 80%
    16:00 +21°C° 2 mm 2 m/S 586 mmHg 84%
    17:00 +20°C° 2 mm 2 m/S 586 mmHg 88%
    18:00 +20°C° 1 mm 1 m/S 586 mmHg 89%
    19:00 +19°C° 1 mm 1 m/S 586 mmHg 89%
    20:00 +18°C° 1 mm 1 m/S 586 mmHg 89%
    21:00 +16°C° 0.1 mm 1 m/S 586 mmHg 88%
    22:00 +16°C° 0.1 mm 1 m/S 586 mmHg 86%
    23:00 +16°C° 0.1 mm 1 m/S 586 mmHg 85%

    26 August, Montag

    Zeit Temperatur Niederschläge Wind Luftdruck Luftfeuchtigkeit
    00:00 +15°C° 0.1 mm 1 m/S 585 mmHg 86%
    01:00 +15°C° 0.1 mm 1 m/S 585 mmHg 86%
    02:00 +15°C° 0.1 mm 2 m/S 584 mmHg 87%
    03:00 +14°C° 0 mm 2 m/S 584 mmHg 87%
    04:00 +14°C° 0 mm 2 m/S 584 mmHg 87%
    05:00 +14°C° 0 mm 1 m/S 584 mmHg 87%
    06:00 +16°C° 0 mm 1 m/S 586 mmHg 81%
    07:00 +19°C° 0 mm 1 m/S 587 mmHg 74%
    08:00 +22°C° 0 mm 1 m/S 588 mmHg 67%
    09:00 +23°C° 0 mm 1 m/S 589 mmHg 62%
    10:00 +25°C° 0 mm 1 m/S 589 mmHg 57%
    11:00 +27°C° 0 mm 1 m/S 589 mmHg 51%
    12:00 +26°C° 0.9 mm 1 m/S 588 mmHg 58%
    13:00 +25°C° 0.9 mm 2 m/S 587 mmHg 64%
    14:00 +24°C° 0.9 mm 3 m/S 586 mmHg 71%
    15:00 +23°C° 1.3 mm 2 m/S 586 mmHg 75%
    16:00 +21°C° 1.3 mm 2 m/S 586 mmHg 80%
    17:00 +20°C° 1.3 mm 2 m/S 585 mmHg 84%
    18:00 +18°C° 0.2 mm 2 m/S 585 mmHg 88%
    19:00 +18°C° 0.2 mm 1 m/S 585 mmHg 91%
    20:00 +15°C° 0.2 mm 1 m/S 585 mmHg 94%
    21:00 +15°C° 0 mm 1 m/S 585 mmHg 92%
    22:00 +15°C° 0 mm 1 m/S 585 mmHg 90%
    23:00 +15°C° 0 mm 1 m/S 585 mmHg 88%

    27 August, Dienstag

    Zeit Temperatur Niederschläge Wind Luftdruck Luftfeuchtigkeit
    00:00 +15°C° 0 mm 1 m/S 585 mmHg 88%
    01:00 +15°C° 0 mm 1 m/S 584 mmHg 87%
    02:00 +14°C° 0 mm 1 m/S 584 mmHg 86%
    03:00 +14°C° 0 mm 1 m/S 584 mmHg 86%
    04:00 +14°C° 0 mm 1 m/S 584 mmHg 86%
    05:00 +14°C° 0 mm 1 m/S 584 mmHg 86%
    06:00 +16°C° 0 mm 1 m/S 586 mmHg 80%
    07:00 +19°C° 0 mm 1 m/S 587 mmHg 73%
    08:00 +19°C° 0 mm 0 m/S 588 mmHg 67%
    09:00 +22°C° 0.4 mm 1 m/S 588 mmHg 65%
    10:00 +23°C° 0.4 mm 1 m/S 588 mmHg 62%
    11:00 +24°C° 0.4 mm 2 m/S 589 mmHg 60%
    12:00 +23°C° 1.1 mm 2 m/S 588 mmHg 65%
    13:00 +23°C° 1.1 mm 2 m/S 587 mmHg 70%
    14:00 +21°C° 1.1 mm 2 m/S 586 mmHg 74%
    15:00 +20°C° 1.2 mm 2 m/S 586 mmHg 79%
    16:00 +20°C° 1.2 mm 2 m/S 586 mmHg 84%
    17:00 +19°C° 1.2 mm 2 m/S 586 mmHg 88%
    18:00 +18°C° 0.7 mm 2 m/S 586 mmHg 90%
    19:00 +18°C° 0.7 mm 1 m/S 586 mmHg 92%
    20:00 +16°C° 0.7 mm 1 m/S 586 mmHg 93%
    21:00 +16°C° 1.1 mm 1 m/S 586 mmHg 92%
    22:00 +16°C° 1.1 mm 1 m/S 587 mmHg 91%
    23:00 +15°C° 1.1 mm 1 m/S 587 mmHg 90%

    28 August, Mittwoch

    Zeit Temperatur Niederschläge Wind Luftdruck Luftfeuchtigkeit
    00:00 +15°C° 0.7 mm 1 m/S 586 mmHg 89%
    01:00 +15°C° 0.7 mm 1 m/S 586 mmHg 88%
    02:00 +15°C° 0.7 mm 1 m/S 586 mmHg 87%
    03:00 +14°C° 0.3 mm 1 m/S 586 mmHg 86%
    04:00 +14°C° 0.3 mm 1 m/S 586 mmHg 86%
    05:00 +14°C° 0.3 mm 1 m/S 586 mmHg 86%
    06:00 +16°C° 0.1 mm 1 m/S 587 mmHg 80%
    07:00 +19°C° 0.1 mm 1 m/S 588 mmHg 75%
    08:00 +21°C° 0.1 mm 1 m/S 590 mmHg 69%
    09:00 +22°C° 0.5 mm 1 m/S 590 mmHg 67%
    10:00 +23°C° 0.5 mm 2 m/S 590 mmHg 64%
    11:00 +23°C° 0.5 mm 2 m/S 590 mmHg 62%
    12:00 +23°C° 1.1 mm 2 m/S 589 mmHg 66%
    13:00 +22°C° 1.1 mm 3 m/S 589 mmHg 70%
    14:00 +21°C° 1.1 mm 3 m/S 588 mmHg 74%
    15:00 +20°C° 0.7 mm 3 m/S 588 mmHg 79%
    16:00 +19°C° 0.7 mm 3 m/S 587 mmHg 83%
    17:00 +18°C° 0.7 mm 3 m/S 587 mmHg 88%
    18:00 +17°C° 0 mm 2 m/S 587 mmHg 91%
    19:00 +16°C° 0 mm 2 m/S 587 mmHg 94%
    20:00 +15°C° 0 mm 1 m/S 587 mmHg 97%
    21:00 +15°C° 0 mm 1 m/S 587 mmHg 96%
    22:00 +14°C° 0 mm 1 m/S 587 mmHg 95%
    23:00 +13°C° 0 mm 0 m/S 587 mmHg 94%
    Mehr zeigen